STARLINK-34584, 64697

Orbit data source: Space-Track

STARLINK-34584, 64697 is a payload satellite owned by SpaceX/Seattle (US) in LEO that was launched on Sat, 28 Jun 2025 UTC via an FALCON 9 launch vehicle from the Air Force Western Test Range (AFWTR). Payload-class satellites include a variety of spacecraft equipped with specific instruments for various scientific and technological missions. These include communications satellites like Starlink; space stations such as the ISS; scientific satellites like the Hubble; Earth observation satellites from companies like Planet Labs, Umbra, and HawkEye 360; GPS; miniature CubeSats for education and research; and military/defense satellites.

Loading next visibility...
Identifier
64697, 2025-142B
Orbit
LEO
Country
Flag of USUS
Related business
Manufacturer
SpaceX/Seattle
Mission
Operational Commercial Communications
Bus & Motor
STARLINK V2MO, Unknown motor
Mass
575 kg wet, ~530 kg dry
Launch date (UTC)
2025-06-28 (11 months ago)
Launch vehicle
FALCON 9
Launch site
Air Force Western Test Range (AFWTR)
Object type
Payload
Rocket body
Debris
Shape & HBR
Box + 2 Pan, 17.7 m
Radar Cross Section
36.964 m², Large (>1 m²)

Expand to show TLE details & history
Last TLE update: 10 hours ago

TLE from 10 hours ago
0 STARLINK-34584
1 64697U 25142B   26145.32541730  .00002066  00000-0  18084-3 0  9997
2 64697  70.0001 121.0859 0003681 266.2918  93.7820 14.98334531 50960
Epoch: 2026-05-25T07:48Z
TLE epoch observation values (Epoch: 2026-05-25T07:48:36.054Z)
Latitude
-0.00005°
Longitude
121.02083°
Altitude
574.635 km
Speed
7.574 km/s
True Right ascension
08h 04m 20s
True Declination
0° 00' 00"
Sunlit
Object was in daylight at epoch
Visualization orbit readout
Latitude
Unknown
Longitude
Unknown
Altitude
Unknown
Speed
Unknown
Apparent Right ascension
Unknown
Apparent Declination
Unknown
Sunlit
N/A
Visualization observer readout
Local Sidereal Time
03:09:48
Azimuth
Unknown
Elevation
Unknown
Doppler factor
Unknown
Orbital elements
Apogee altitude
572.548 km
Perigee altitude
567.432 km
Semi-major axis
6,948.127 km
Eccentricity
0.00037
Inclination
70.0001°
RAAN
121.0859°
Arg. of periapsis
266.2918°
True anomaly
93.82409°
Mean anomaly
93.782°
Eccentric anomaly
93.80304°
Mean motion
3.7475 °/min
Orbital period
96.06 mins
BSTAR
0.00018084
Loading maneuver chart data...
Computing Atmospheric mass density...
Loading historical data...
Loading historical data...
Loading historical data...
Loading historical data...
Loading historical data...
Loading historical data...
Loading historical data...

Documentation

Showing up to 5 results
|